Regional Weather Roundup
Issued by NWS State College, PA

Home | Current Version | Previous Version | Graphics & Text | Print | Product List | Glossary On
Versions: 1 2 3 4 5 6 7 8 9 10 11 12 13 14 15 16 17 18 19 20 21 22 23 24 25 26 27 28 29 30 31 32 33 34 35 36 37 38 39 40 41 42 43 44 45 46 47 48 49 50
000
ASUS41 KCTP 211710
RWRCTP

REGIONAL WEATHER ROUNDUP
NATIONAL WEATHER SERVICE STATE COLLEGE PA
100 PM EDT SUN SEP 21 2014

Note: "fair" indicates few or no clouds below 12,000 feet with no
significant weather and/or obstructions to visibility.

* = STATION THAT DOES NOT REPORT PRECIPITATION /E.G. RAIN...SNOW...ETC/
    THUNDER OR FOG.

PAZ002>004-007>009-013>016-020>023-029>032-211800-
WESTERN PENNSYLVANIA

CITY           SKY/WX    TMP DP  RH WIND       PRES   REMARKS
ERIE           PTSUNNY   72  61  68 W15G30    29.67R
MEADVILLE      LGT RAIN  69  59  70 W13G29    29.68F
FRANKLIN*      CLOUDY    70  61  73 SW13G21   29.73S
NEW CASTLE     NOT AVBL
BEAVER COUNTY  CLOUDY    77  61  57 SW14G23   29.73F
BUTLER*        MOSUNNY   75  64  69 SW14G23   29.75F
PITTSBURGH INT PTSUNNY   74  64  71 SW13G21   29.74F
PITTSBURGH     PTSUNNY   74  63  68 SW17      29.76F
INDIANA*       CLOUDY    70  66  88 SW9G16    29.80F
LATROBE        CLOUDY    72  70  94 SW16      29.79F
WASHINGTON CO* PTSUNNY   75  66  73 SW13G20   29.77F
$$

PAZ004>006-010>012-017>019-024>028-033>037-041-042-045-046-049>053-211800-
CENTRAL PENNSYLVANIA

CITY           SKY/WX    TMP DP  RH WIND       PRES   REMARKS
BRADFORD       LGT RAIN  67  63  87 VRB7      29.73F
DUBOIS         PTSUNNY   70  64  81 SW16G22   29.74F
CLEARFIELD     CLOUDY    70  64  81 SW12G23   29.76F
JOHNSTOWN      CLOUDY    68  64  87 SW14      29.80F
ALTOONA        PTSUNNY   75  65  70 SW16G23   29.77F
STATE COLLEGE  PTSUNNY   73  64  73 SW12      29.75F
WILLIAMSPORT   MOSUNNY   76  61  59 S14G22    29.71F
SELINSGROVE    SUNNY     78  62  57 S10       29.75F
FT INDIANTOWN  SUNNY     73  66  76 SE3       29.79F
CAPITAL CITY   SUNNY     76  62  62 E9        29.78F
HARRISBURG     MOSUNNY   78  62  57 SE6       29.77F
YORK           SUNNY     80  63  55 SE6       29.78F
$$

PAZ038>040-043-044-047-048-054-055-060>062-067>071-211800-
EASTERN PENNSYLVANIA

CITY           SKY/WX    TMP DP  RH WIND       PRES   REMARKS
SCRANTON       SUNNY     79  59  50 SW9       29.76F
MOUNT POCONO   MOSUNNY   73  52  47 SW9       29.83F
ALLENTOWN      PTSUNNY   68  59  73 CALM      29.81F
QUAKERTOWN*    PTSUNNY   73  61  64 CALM      29.81F
READING        PTSUNNY   73  61  65 CALM      29.79F
LANCASTER      SUNNY     74  61  63 VRB3      29.78F
COATESVILLE    PTSUNNY   73  63  68 CALM      29.81F
POTTSTOWN      PTSUNNY   71  62  73 CALM      29.81F
BLUE BELL      CLOUDY    77  63  61 CALM      29.79F
DOYLESTOWN     CLOUDY    76  60  57 CALM      29.79F
WILLOW GROVE   NOT AVBL
NORTH PHILA    CLOUDY    74  64  71 CALM      29.81F
PHILADELPHIA   CLOUDY    74  66  76 CALM      29.80F
$$


USA.gov is the U.S. government's official web portal to all federal, state and local government web resources and services.